Theta_e
320 323 324 323 322 319 318 318 319 320 318 318 319 319 318 318 316 317 318 316 316 317 317 318 318 317 317 317 317 318 320 320 319 319 319 320 321 320 320 320 321 322 321 319 319 318 317 316 316 316 316 317 320 321 321 322 322 323 324 325 325 325 324 324 324 324 324 323 323 323 323 323 323 323 324 324 326 326 325 325 327 328 328 329 330 331
319 323 325 322 320 319 318 319 318 318 318 318 318 318 318 318 317 318 318 316 315 317 317 317 317 316 317 318 318 319 318 318 318 318 318 319 319 320 321 321 321 321 320 324 324 319 317 316 316 315 315 315 317 319 319 319 320 321 321 323 323 323 323 323 322 323 322 322 322 321 321 321 321 321 321 323 324 324 324 324 325 328 328 329 330 331
321 322 322 319 319 319 319 318 318 318 318 319 319 318 319 321 319 317 318 317 315 317 317 318 318 316 316 317 316 317 317 317 318 317 318 319 319 320 321 320 322 322 325 331 330 320 316 316 315 315 314 314 315 316 318 318 318 320 320 321 322 322 322 322 322 321 321 320 320 320 320 319 319 319 320 321 322 322 324 324 324 326 329 330 330 330
322 319 318 318 319 319 319 318 317 318 318 320 320 318 320 323 321 317 316 317 317 316 317 319 319 317 317 318 317 316 316 315 317 319 319 322 322 321 322 322 324 325 327 332 331 323 317 316 315 314 314 314 314 315 316 317 317 318 319 320 320 321 320 321 321 320 320 319 319 319 319 318 318 319 319 319 319 321 322 323 323 325 328 329 330 330
319 317 317 318 318 319 318 318 318 318 318 322 323 320 320 322 320 318 318 318 317 318 320 321 321 321 320 320 319 318 319 317 318 320 320 324 327 326 326 327 328 328 329 330 330 327 319 315 315 314 314 314 313 314 315 315 316 317 318 319 319 320 319 319 319 319 319 319 319 318 318 318 318 318 318 318 319 321 321 321 322 324 327 327 329 329
318 316 317 317 318 318 317 318 321 321 317 319 324 324 320 319 319 320 321 321 317 318 321 320 322 326 322 317 317 316 320 321 321 322 322 324 327 327 327 327 328 330 330 330 330 327 320 315 315 314 313 313 313 313 314 314 315 316 317 318 319 319 319 318 318 318 318 318 318 318 317 318 318 317 318 318 319 320 320 320 321 322 323 325 327 327
317 316 318 320 320 322 320 319 322 323 317 315 322 325 320 319 322 321 321 321 319 320 321 319 320 323 318 312 315 316 317 321 323 324 323 322 323 324 324 325 326 327 329 330 329 327 322 316 315 314 313 313 313 312 313 313 314 315 316 317 318 318 318 318 318 318 318 318 317 317 317 316 317 317 317 317 317 318 319 320 319 319 320 322 324 325
317 318 321 322 322 325 323 320 322 321 316 319 326 325 320 318 323 323 320 321 323 322 322 320 319 322 319 313 315 318 318 320 321 321 322 322 321 321 324 328 329 328 332 334 332 329 324 317 314 315 314 313 313 312 312 313 313 314 315 316 317 318 318 318 318 317 318 317 317 317 316 315 315 316 316 316 315 315 316 318 318 317 318 320 322 323
319 321 324 323 322 324 321 321 326 321 318 323 326 324 322 322 325 325 322 322 324 324 325 325 321 324 326 319 315 319 317 317 320 320 320 320 320 321 324 330 332 331 333 334 332 329 322 317 315 315 315 314 313 312 312 312 313 313 314 315 316 317 317 317 317 317 317 317 317 316 316 315 315 315 315 315 315 314 315 316 316 316 317 319 320 322
320 319 320 322 322 322 319 319 325 324 320 324 324 323 324 325 325 325 324 322 324 326 328 329 324 322 326 320 314 317 316 317 321 320 321 322 325 327 329 331 332 331 329 327 328 325 319 316 316 315 314 314 313 313 312 312 312 313 313 315 316 316 316 316 316 317 317 317 316 316 315 315 314 314 314 314 315 316 315 315 316 315 316 318 320 321
315 313 317 320 319 319 317 318 323 325 322 323 325 325 324 325 324 324 325 322 322 326 328 327 324 319 323 322 316 315 317 319 321 318 321 325 326 328 331 332 329 329 329 326 325 321 315 314 315 314 314 313 313 312 312 312 312 312 313 314 315 315 316 316 316 316 316 316 316 315 315 314 313 313 313 313 315 317 316 316 316 316 316 318 319 319
317 317 318 319 316 316 318 319 321 322 323 325 325 323 321 323 324 323 324 323 323 325 324 325 324 320 322 323 317 316 319 319 319 318 320 325 327 329 331 330 326 328 328 325 325 322 316 315 313 312 312 312 312 312 312 312 312 312 312 313 314 314 315 315 315 315 315 315 315 315 314 314 313 313 313 314 315 317 317 316 316 316 317 317 317 318
322 322 321 319 317 316 320 323 321 319 323 325 322 320 318 320 323 324 326 329 327 322 321 322 322 321 320 319 318 319 319 318 318 320 321 323 328 332 331 328 326 328 327 325 326 323 320 317 311 310 311 311 311 311 311 311 311 312 312 312 313 314 314 315 314 314 315 315 314 314 314 313 313 313 313 314 315 316 317 316 316 316 316 316 316 316
323 324 323 319 318 316 318 322 321 320 322 322 321 322 322 319 319 322 324 327 326 321 322 322 321 322 319 316 319 320 317 318 318 320 325 325 325 329 332 332 329 328 326 327 328 326 325 319 311 309 310 310 310 310 310 310 311 311 311 312 312 313 313 314 314 314 314 314 314 313 313 313 312 312 313 314 315 316 316 315 315 315 315 315 316 316
321 325 323 320 319 318 317 319 319 320 321 320 319 321 323 320 317 318 320 322 325 323 321 321 321 324 320 315 319 320 319 322 320 321 324 324 323 325 328 330 329 329 328 329 330 329 328 320 314 314 312 311 311 310 310 310 310 310 311 311 312 312 313 313 314 314 313 313 313 313 312 312 311 312 312 313 314 316 316 315 314 314 315 315 315 316
318 321 322 319 318 316 317 318 316 319 321 320 319 320 323 322 316 317 320 320 321 321 322 324 324 324 320 316 318 318 319 321 321 323 322 322 324 324 327 329 330 330 329 330 331 330 327 319 316 317 315 312 312 310 310 310 309 310 310 311 311 311 312 312 313 313 313 313 312 312 312 311 311 311 311 312 313 314 315 314 314 314 314 314 314 315
319 321 322 319 317 315 319 321 317 320 322 320 322 322 322 323 317 317 321 320 318 317 320 323 322 318 315 315 317 316 316 315 317 321 320 320 322 323 328 329 328 328 329 330 330 330 327 319 316 317 315 314 312 311 311 310 309 310 310 311 311 311 312 312 312 313 313 312 312 311 311 311 311 311 311 311 311 313 313 313 314 313 313 313 314 314
320 321 321 319 318 318 319 321 319 322 324 323 326 323 320 323 321 318 320 321 320 319 317 317 315 312 311 315 318 316 316 315 316 318 318 320 322 323 327 327 328 332 333 331 329 329 326 318 315 316 314 314 313 311 311 310 309 310 310 310 310 311 311 312 312 312 312 312 311 311 311 311 311 310 310 310 311 311 312 312 312 312 312 313 313 314
318 318 319 318 318 318 317 318 320 321 321 322 323 321 321 324 324 320 318 317 318 318 317 316 314 313 312 313 315 314 317 319 318 318 318 319 321 323 326 327 330 336 335 334 333 333 329 318 314 314 313 312 312 311 311 310 309 310 310 310 310 310 310 311 312 312 312 312 311 311 310 310 310 310 310 310 310 310 311 311 311 312 312 312 312 312
317 317 320 317 316 317 317 318 321 321 320 321 320 320 322 323 323 323 319 316 316 316 316 316 315 315 313 313 314 315 317 318 318 319 320 319 321 325 327 329 333 337 337 336 334 335 331 319 313 314 312 311 311 310 310 310 310 310 310 310 310 310 310 310 311 312 312 312 311 310 310 310 309 310 310 310 310 310 310 310 311 311 311 311 311 311
317 316 320 318 316 319 320 319 318 320 320 321 321 321 322 321 322 324 322 318 318 317 316 316 315 314 313 314 316 315 317 320 321 323 324 322 322 324 326 329 334 339 341 337 332 335 334 321 314 314 312 310 310 310 310 310 309 310 309 309 310 310 310 310 310 311 311 311 311 310 310 309 309 309 309 309 309 309 309 309 310 310 310 310 310 311
317 315 319 321 319 319 319 317 316 318 318 318 317 318 320 320 321 322 321 319 319 317 316 317 317 314 313 317 319 316 318 324 325 324 322 320 318 320 327 335 336 338 342 338 330 333 333 320 313 313 311 310 309 309 309 309 309 310 309 309 309 310 310 310 310 311 311 311 311 310 310 309 309 309 309 309 309 309 308 308 309 309 309 309 309 310
318 316 318 322 321 319 317 317 318 319 319 319 318 316 317 318 319 320 320 321 322 320 317 319 320 317 314 318 320 316 317 320 321 319 317 317 319 324 333 340 339 338 343 339 330 328 324 315 312 312 310 309 309 308 308 308 308 309 309 309 309 309 310 310 310 310 311 311 311 310 310 309 309 309 308 308 308 308 308 308 308 308 308 308 309 309
319 318 318 319 319 318 318 318 318 318 319 321 322 320 318 318 319 320 321 322 324 324 322 321 320 317 314 316 318 317 318 318 317 318 318 319 323 327 331 333 334 337 342 339 331 325 318 312 311 310 309 308 308 308 307 307 308 308 308 309 309 309 309 309 310 310 310 311 310 310 309 309 308 308 308 308 308 308 307 307 306 306 307 307 307 307
319 320 320 319 319 320 321 321 321 320 319 320 321 321 321 321 322 323 322 321 321 324 326 323 320 318 315 316 319 318 318 318 317 319 322 323 325 327 327 328 332 335 338 338 332 325 320 318 314 309 308 309 307 307 307 307 307 307 307 308 308 308 309 309 310 310 310 310 310 309 309 308 308 308 307 307 307 307 307 306 305 305 306 306 306 306
321 321 319 318 319 320 321 324 324 323 321 320 320 321 321 323 324 324 324 323 321 321 322 321 319 317 315 315 317 316 315 316 317 319 322 322 324 327 327 330 335 336 335 334 332 328 327 329 324 312 309 310 309 308 308 307 307 306 306 307 307 308 308 308 309 309 309 310 310 309 309 308 307 307 307 307 307 306 306 305 305 305 305 305 305 304
323 321 319 318 319 318 319 322 323 323 321 320 321 321 320 321 323 323 324 323 321 320 319 319 318 317 316 315 314 314 314 315 315 317 319 319 321 324 325 328 330 330 330 329 329 328 329 334 332 318 310 311 311 309 309 308 307 307 306 306 306 307 307 308 308 308 309 309 309 309 309 308 307 307 307 306 306 305 305 304 304 304 304 304 303 303
323 318 319 319 318 318 317 317 318 319 320 319 320 320 319 320 322 323 323 321 320 320 319 318 318 318 317 315 315 315 314 314 315 317 317 317 318 321 323 325 324 324 327 328 327 329 329 331 333 322 312 312 312 311 310 310 308 308 307 306 306 306 306 307 307 308 308 308 308 309 308 307 307 306 306 306 305 305 304 304 304 304 304 303 303 302
322 318 319 318 317 317 316 316 316 317 317 318 319 320 320 321 321 321 321 320 320 320 319 317 319 319 317 315 315 315 315 315 316 316 317 318 319 320 322 326 325 325 329 329 328 329 328 327 330 323 312 311 313 311 311 311 309 308 307 306 306 306 306 307 307 307 307 307 307 308 307 307 306 306 305 305 304 304 303 303 303 303 302 302 302 301
320 318 318 317 317 317 316 316 317 317 317 317 318 319 319 321 322 320 319 319 319 320 318 318 319 318 316 316 315 315 315 315 315 315 316 316 317 319 321 323 323 323 323 323 322 322 322 324 326 320 311 309 312 311 311 311 310 309 308 307 307 306 306 306 306 306 306 306 306 306 306 306 305 305 305 304 304 303 302 302 302 302 301 301 301 300
318 318 318 317 317 317 317 317 317 317 318 318 318 318 318 319 320 320 319 319 319 320 319 318 319 318 316 315 315 315 315 315 315 315 315 315 315 317 319 319 319 319 319 319 318 318 320 322 323 319 313 311 312 312 312 312 311 310 309 308 308 308 306 305 305 306 306 306 306 305 305 305 305 304 304 303 303 302 302 301 301 300 300 300 299 299
317 318 318 317 318 319 318 318 317 317 318 318 318 318 318 318 318 318 318 318 319 320 320 319 319 318 316 315 316 316 315 315 315 315 315 315 315 316 317 318 318 318 317 317 316 317 318 318 319 318 314 312 312 313 313 313 312 310 309 309 310 309 307 305 305 306 305 305 305 304 304 304 304 304 303 302 302 301 301 300 300 299 299 299 298 297
316 317 318 317 318 319 318 318 319 318 318 320 319 318 317 317 317 317 318 318 318 319 319 320 319 317 316 316 316 316 315 315 315 315 315 315 315 316 317 318 318 317 316 316 316 317 317 316 315 314 312 311 313 314 314 314 313 312 311 311 310 308 306 305 305 305 305 305 304 303 304 303 303 303 302 301 301 300 300 299 299 298 298 298 298 297
315 316 317 317 318 319 318 318 319 319 319 320 318 317 317 317 317 318 318 317 317 317 317 317 317 317 317 317 316 316 315 315 315 315 315 315 315 315 316 316 317 316 316 316 316 315 316 314 312 311 312 312 313 314 314 314 314 313 313 311 309 307 306 305 305 304 304 304 303 303 303 302 302 302 301 301 300 299 299 298 298 298 297 297 297 296
316 315 316 317 318 318 318 318 319 319 319 318 316 317 316 316 317 318 318 317 316 317 317 317 316 317 316 316 316 316 315 315 315 315 315 315 315 315 316 316 315 315 315 315 315 315 315 313 311 311 312 312 313 314 314 314 314 313 311 309 307 306 305 305 304 304 304 303 302 302 302 301 301 301 300 299 299 298 298 298 297 297 296 296 296 295
315 315 315 316 317 317 318 318 319 319 318 317 317 317 317 317 317 318 319 318 316 316 317 317 316 316 316 316 316 316 316 317 316 316 315 315 315 316 317 315 315 315 316 315 314 314 313 311 311 311 311 312 313 313 314 314 313 311 309 308 307 306 305 304 303 303 302 301 301 301 301 300 300 300 299 298 297 297 297 297 296 296 295 294 294 294
315 315 315 316 316 316 317 317 316 317 317 316 315 315 317 318 318 319 319 318 316 317 318 318 317 317 317 317 317 317 317 318 317 316 315 315 317 319 319 317 315 315 314 313 313 313 312 311 312 312 312 312 312 312 312 312 310 309 307 306 305 304 303 302 301 301 300 300 300 300 300 300 299 298 298 297 296 296 296 295 295 294 294 293 292 292
314 315 315 315 315 315 316 316 316 316 316 315 314 314 315 316 318 319 319 318 318 318 317 316 316 316 315 316 316 317 318 318 318 317 315 316 318 321 321 318 315 311 310 311 310 310 310 311 311 311 310 309 309 308 309 308 307 307 305 303 303 302 301 300 299 299 299 299 299 299 298 298 298 297 296 296 295 295 295 295 294 293 293 292 291 291
314 314 314 314 315 315 316 315 316 315 314 315 316 316 316 317 317 318 319 319 317 315 312 312 313 313 313 313 313 314 317 318 318 316 314 313 313 314 315 315 312 308 307 307 306 305 306 307 308 309 308 307 306 305 305 305 305 304 302 301 300 299 299 298 298 298 298 298 297 297 297 297 296 296 296 295 295 294 294 293 293 292 291 290 290 290
313 313 314 314 314 315 315 315 315 314 314 316 317 316 318 318 315 317 319 318 314 310 309 310 312 312 313 314 313 313 315 316 315 313 311 309 309 309 309 310 311 307 304 304 304 303 304 304 305 305 306 305 304 303 303 302 302 301 300 299 298 297 297 297 297 297 297 296 296 296 296 295 295 295 295 294 294 293 293 292 291 290 289 289 289 288
314 313 314 314 315 314 314 314 314 313 313 316 316 316 318 318 316 317 316 313 310 308 307 307 309 311 312 312 312 312 312 312 311 309 308 307 307 308 307 306 307 306 304 304 304 303 303 303 303 302 303 302 302 301 300 300 299 299 298 297 296 296 296 296 296 296 295 295 295 294 294 294 294 294 294 293 293 292 291 291 290 289 288 288 287 287
313 313 313 313 313 313 314 314 314 313 313 315 316 315 316 317 316 314 311 308 308 308 306 305 307 310 311 311 311 311 309 309 308 307 306 306 306 308 307 305 305 306 305 304 304 302 302 301 300 300 300 299 299 298 298 298 298 297 296 296 295 295 295 295 295 294 294 294 293 293 293 293 293 293 292 292 291 291 289 289 289 288 287 287 287 286
312 312 313 314 314 314 314 314 314 314 312 312 314 315 314 313 313 311 309 308 307 307 307 306 305 308 309 309 310 310 308 307 306 305 305 305 305 306 306 306 306 305 303 302 302 301 300 298 298 298 297 296 296 296 296 296 296 296 295 295 294 294 294 294 293 293 293 292 292 292 292 292 292 291 291 291 290 290 288 287 287 287 286 286 286 285
311 311 311 313 315 315 314 313 314 314 312 309 309 311 310 309 310 310 309 308 307 307 308 307 306 307 307 307 308 308 306 306 305 305 304 304 304 304 304 304 303 302 300 300 300 300 298 297 296 296 295 294 294 293 294 295 295 294 294 293 293 293 292 292 292 292 291 291 291 290 290 290 290 290 290 289 289 289 288 287 286 286 285 285 285 284
309 310 309 310 312 313 313 313 314 313 311 308 308 309 308 308 309 309 308 308 308 308 308 307 307 307 306 305 306 306 305 305 305 304 304 303 302 302 302 302 301 300 298 298 298 297 296 295 295 294 293 293 292 292 293 293 294 293 292 291 291 291 291 291 291 290 290 289 289 289 289 289 289 289 289 288 288 288 287 286 285 285 284 284 284 283
308 310 310 309 311 312 311 311 312 310 308 307 308 310 310 310 310 309 308 309 310 309 308 308 308 307 306 304 304 304 305 304 304 303 302 302 302 301 301 300 299 297 297 296 295 295 294 293 293 293 292 291 291 291 291 292 293 293 291 290 290 290 290 290 290 289 289 288 288 288 288 288 287 287 287 287 287 287 286 285 285 284 284 283 283 283
307 309 309 309 309 309 308 308 309 307 305 304 305 308 311 312 310 308 309 311 311 309 309 308 308 307 305 304 303 304 304 304 303 302 302 301 301 301 301 300 298 296 295 294 293 293 293 292 292 292 291 290 290 290 290 291 291 291 290 289 289 289 289 289 289 288 287 287 287 287 287 287 286 286 286 286 285 285 285 284 284 284 283 283 283 283
306 306 306 307 308 307 307 307 307 305 303 304 306 308 310 310 309 309 310 311 310 309 308 307 306 306 306 305 304 304 304 304 303 302 301 301 300 300 301 300 296 294 294 294 293 292 292 291 291 291 290 289 289 289 289 290 290 290 290 289 289 289 289 289 288 287 286 286 286 286 286 286 285 285 285 285 284 284 284 284 284 284 283 283 283 283
303 303 304 304 304 304 304 304 304 303 304 306 308 309 308 308 308 308 309 309 308 308 308 307 305 304 304 304 304 304 304 303 302 301 300 300 300 300 300 297 295 294 293 293 292 291 291 290 291 291 290 288 288 288 289 289 289 289 289 289 289 289 289 288 287 286 286 286 286 286 285 285 285 285 284 284 284 284 284 284 284 284 284 283 283 284
302 301 302 303 302 302 302 302 302 302 303 304 303 303 304 306 306 307 307 308 308 307 307 306 304 303 302 302 303 303 303 302 301 301 300 300 299 299 297 295 294 293 293 292 291 290 290 290 290 290 289 287 287 287 288 288 288 287 288 288 288 289 288 287 286 286 286 285 285 285 285 285 285 284 284 284 284 284 284 284 284 284 284 284 284 283
302 301 302 303 302 302 301 301 300 300 300 301 301 302 303 305 305 305 306 306 306 306 305 305 305 304 303 302 301 301 302 302 300 299 300 299 298 296 296 295 293 292 292 291 290 289 289 289 289 288 287 287 286 286 286 286 286 286 286 287 287 288 288 287 286 286 285 285 285 285 285 285 284 284 284 284 284 283 283 283 283 283 284 284 284 284
Wind_Speed
2 2 2 2 4 4 6 7 4 2 5 4 3 2 1 1 1 3 4 2 3 1 5 7 8 10 10 10 10 8 7 7 8 9 9 8 8 8 8 9 10 9 9 13 19 24 29 31 30 30 29 28 28 29 30 30 31 32 32 32 33 33 32 32 32 32 32 32 32 31 32 33 31 29 28 28 29 28 29 32 32 31 33 34 32 32
2 2 4 5 4 1 1 3 2 3 4 3 3 4 4 2 0 3 3 1 1 2 4 6 8 10 9 9 10 8 9 10 10 11 11 11 10 8 9 11 11 8 7 10 13 18 25 27 28 29 29 30 30 30 31 32 33 32 32 33 33 33 33 33 34 34 34 35 34 33 33 33 31 31 30 30 30 29 28 30 32 31 31 33 34 33
1 3 5 4 2 4 5 4 5 4 3 3 2 2 3 3 1 4 3 0 0 0 4 5 7 10 10 10 12 11 12 12 12 12 12 11 10 9 10 10 9 8 7 8 9 12 19 23 24 26 27 30 31 31 31 31 31 31 31 33 33 33 34 35 35 35 35 35 33 32 30 29 29 30 31 31 30 30 29 29 31 33 33 33 33 33
2 3 4 1 4 3 3 4 4 3 3 1 1 1 2 1 1 1 2 1 2 2 3 5 6 10 10 9 13 15 15 13 10 12 11 10 10 10 11 9 8 9 9 9 8 10 15 19 22 24 26 28 27 27 27 28 29 30 32 33 33 33 34 34 34 34 33 31 29 28 26 25 26 27 27 28 27 29 31 30 30 33 35 34 35 34
3 1 1 2 3 1 2 2 1 1 1 4 5 4 3 2 2 2 1 2 4 1 3 4 6 8 6 5 8 9 9 9 8 10 10 9 9 10 9 8 7 8 8 8 9 9 12 16 21 25 26 25 25 25 26 28 29 30 30 31 31 31 32 32 32 32 30 28 27 25 22 21 22 22 23 25 27 28 30 32 33 34 34 33 34 34
2 1 2 3 3 2 3 3 4 4 3 4 5 4 4 4 1 4 4 3 2 2 2 2 3 6 4 4 8 7 4 6 7 9 10 8 8 9 9 9 8 8 7 7 8 8 11 16 20 22 22 23 24 26 26 27 28 28 27 28 28 28 28 29 30 30 30 29 28 27 26 24 24 23 24 28 30 29 29 31 33 35 36 33 33 33
2 1 2 3 5 3 2 2 4 6 2 3 3 3 3 3 3 3 2 2 0 3 3 2 2 4 8 8 8 6 6 7 6 8 9 8 8 9 9 9 8 8 8 7 7 6 9 14 16 16 20 22 23 24 23 24 25 26 25 26 27 27 27 27 28 29 30 29 28 29 30 29 28 27 27 28 27 27 28 29 30 33 36 35 33 32
2 3 1 2 4 4 3 1 3 6 4 2 3 5 4 2 3 2 1 2 2 2 2 2 4 2 8 9 4 2 6 8 7 9 8 8 10 10 8 8 8 7 7 6 7 7 7 11 15 16 19 21 21 21 20 22 24 24 23 23 25 26 25 25 26 27 29 29 28 28 29 29 29 27 25 24 23 25 26 28 30 30 32 33 33 32
1 4 3 3 4 3 3 1 2 3 4 2 3 2 2 3 3 2 1 2 1 3 3 3 3 2 5 10 6 1 5 9 9 10 10 10 11 9 7 6 6 5 6 6 6 6 6 9 13 15 17 18 19 18 19 21 22 23 22 21 22 24 24 23 24 25 27 29 28 28 28 27 27 26 23 20 20 22 25 28 31 30 30 31 31 32
2 2 2 3 4 3 3 2 4 1 3 3 4 2 3 4 3 2 1 0 2 1 4 6 5 3 4 8 8 3 4 7 8 8 7 5 3 4 5 6 6 6 5 5 6 6 6 8 10 11 13 15 16 17 18 19 20 21 22 21 21 23 23 23 24 25 26 28 28 28 28 27 26 25 23 21 19 21 25 28 29 30 30 30 31 32
1 1 1 1 2 3 4 3 3 3 3 3 4 3 3 2 3 2 1 3 1 3 4 7 10 6 4 5 7 4 4 5 5 4 0 3 5 5 6 6 6 5 4 5 5 6 7 9 10 10 12 14 14 15 17 18 19 20 21 22 21 22 23 23 24 25 26 27 28 28 28 28 28 26 24 24 23 23 25 28 29 30 31 31 31 32
1 1 1 1 1 3 5 3 4 4 3 2 2 3 2 0 3 2 1 3 1 4 2 2 4 5 6 6 5 5 3 2 2 1 3 5 4 3 4 4 6 6 6 6 6 6 7 7 9 11 13 14 15 16 17 18 18 19 20 21 22 22 23 24 24 25 26 28 29 29 29 28 28 26 25 25 25 25 26 28 28 29 30 31 31 31
1 2 3 3 3 2 4 4 4 4 3 0 2 4 3 1 1 1 1 1 3 5 2 4 3 2 7 6 5 7 8 6 4 4 3 6 6 5 5 6 5 5 6 6 6 6 6 6 8 12 15 16 17 18 18 19 19 19 21 22 23 24 25 25 24 25 27 28 29 29 29 29 27 26 26 25 26 26 27 27 28 28 30 31 32 33
1 1 3 4 3 2 4 4 3 0 2 4 5 5 4 3 2 4 4 2 3 3 4 4 2 3 5 3 7 10 12 11 5 2 2 3 4 4 5 6 5 5 5 6 6 7 6 7 9 13 16 18 19 19 19 20 20 21 22 23 24 25 25 25 25 25 26 28 29 29 30 30 28 27 27 26 26 26 27 27 28 28 30 31 33 34
3 3 4 6 3 5 7 6 7 6 5 6 5 5 5 5 4 4 3 3 3 1 3 4 1 3 2 2 5 4 6 7 5 2 1 2 3 2 2 3 5 6 6 6 6 6 7 9 12 15 16 18 19 20 20 21 22 22 23 24 25 25 25 26 26 26 27 28 28 28 29 30 30 29 28 28 27 26 27 27 27 28 30 31 32 33
5 5 5 5 5 11 11 7 6 6 3 5 3 3 5 4 2 1 2 3 2 1 2 2 3 5 3 6 8 6 8 8 7 7 5 5 3 2 1 5 6 6 7 6 6 6 7 10 14 16 16 18 19 20 22 22 23 24 23 24 24 25 26 27 28 27 27 28 27 27 28 29 29 29 28 28 28 28 28 27 27 27 29 30 31 31
5 2 1 2 3 9 7 4 4 4 2 3 3 4 4 1 2 2 2 1 3 2 4 3 5 6 3 8 10 10 13 11 8 8 6 6 5 2 5 7 6 6 7 7 7 7 8 10 14 15 16 18 20 22 23 24 24 24 24 24 24 25 25 26 28 28 27 27 27 27 28 28 29 29 29 29 28 29 28 28 28 28 28 30 30 31
5 2 2 1 2 2 2 2 1 2 2 4 4 4 1 3 2 2 1 2 1 5 4 3 8 8 3 6 5 3 8 8 7 8 7 8 7 6 8 7 5 6 7 7 8 8 8 9 12 15 17 19 21 22 23 23 23 23 23 23 24 25 26 27 27 28 28 27 27 28 28 28 29 29 29 29 29 28 28 29 29 29 29 30 30 30
4 3 3 3 1 2 3 1 1 3 3 4 2 1 2 1 1 2 2 2 3 4 4 5 8 7 6 7 4 4 6 6 7 8 8 7 6 6 7 7 5 4 6 7 7 7 6 7 11 15 17 18 20 21 21 21 22 22 22 22 22 23 25 25 26 28 29 28 28 29 29 29 28 28 29 29 28 27 28 29 30 30 31 30 29 29
2 3 3 3 4 1 2 0 5 1 3 4 3 2 2 2 3 3 3 2 3 4 5 7 6 6 8 6 3 7 8 7 7 6 5 3 0 1 2 4 6 5 5 5 6 6 6 8 12 15 17 18 19 19 20 20 22 23 22 22 22 22 23 24 26 28 29 29 29 29 29 28 29 29 30 29 27 27 28 29 30 31 32 31 30 30
2 2 3 2 5 0 1 4 7 7 4 1 1 2 2 1 2 0 2 2 3 3 4 5 6 8 7 2 4 6 2 2 4 5 5 5 5 4 3 4 6 6 6 6 5 6 6 8 11 13 14 16 17 18 18 20 21 22 21 22 22 23 24 26 27 28 29 30 30 29 29 29 29 30 31 30 29 28 28 28 29 30 30 31 31 31
3 3 4 2 1 3 5 6 6 7 8 8 6 7 7 5 3 1 4 3 3 2 4 4 6 11 6 4 3 3 7 5 6 7 4 6 6 8 7 6 7 5 6 6 4 4 4 6 9 10 12 14 16 17 18 20 21 21 22 22 23 24 25 27 27 28 29 29 30 30 30 29 29 29 30 30 31 30 29 29 28 29 29 30 31 32
2 3 3 3 4 4 4 2 2 1 2 3 5 6 7 6 5 5 5 4 2 3 4 2 5 13 9 4 3 2 3 1 1 1 7 7 5 7 6 7 7 6 6 6 3 2 1 2 7 10 12 14 15 17 18 19 21 22 23 23 24 26 27 27 27 27 28 28 30 31 30 30 30 29 29 30 31 31 31 30 29 29 29 30 31 31
2 2 3 2 1 1 2 2 3 3 3 1 4 4 4 5 5 5 5 3 2 4 4 2 5 14 12 3 1 6 5 5 5 4 6 7 6 7 6 7 7 6 7 7 5 0 2 2 5 8 11 12 13 15 16 18 20 22 23 24 26 28 28 27 26 26 27 29 30 30 31 32 31 30 30 32 33 32 31 29 28 29 30 31 31 30
1 2 3 3 1 1 2 2 3 4 1 2 4 3 4 5 3 2 2 1 2 5 7 5 6 12 13 5 3 3 2 3 4 4 6 7 6 6 7 7 5 5 6 8 6 2 3 5 6 7 9 11 11 12 14 17 20 22 24 26 28 29 28 26 25 26 27 29 30 30 31 33 32 32 32 33 33 32 31 29 28 28 29 30 30 29
1 2 3 5 6 6 3 2 3 2 1 1 3 5 8 8 6 4 2 3 5 8 8 7 7 10 16 16 11 9 8 6 4 4 6 6 6 7 7 6 6 6 7 7 5 5 6 6 6 7 10 12 13 14 16 18 21 22 24 27 29 29 27 26 26 26 28 29 30 31 32 34 34 33 33 33 32 31 30 29 28 29 30 29 29 29
3 1 2 3 6 6 4 2 2 4 4 4 7 8 9 9 7 6 3 5 7 7 8 9 10 12 20 23 19 16 16 10 5 6 8 7 8 8 7 7 7 6 6 5 5 7 7 6 6 9 12 14 15 16 18 20 22 24 25 27 28 27 27 26 26 27 29 30 31 32 33 35 35 34 33 32 31 30 28 28 28 29 30 29 29 29
4 2 3 4 7 7 5 7 5 3 2 6 8 8 9 9 8 7 7 10 9 6 9 12 12 14 18 21 21 21 18 11 5 6 8 7 7 8 7 8 7 6 6 7 7 8 7 7 8 10 14 17 18 19 21 23 25 26 27 28 27 27 28 27 26 27 29 29 30 33 35 35 34 33 32 30 29 29 28 28 28 29 29 28 29 29
5 3 5 5 8 10 9 10 9 6 5 5 6 7 7 8 10 10 12 14 11 9 11 12 12 14 15 16 22 22 16 11 8 7 6 6 8 8 7 7 7 6 7 8 8 9 8 9 9 10 15 20 21 22 24 26 28 28 28 28 28 29 31 29 27 27 28 29 32 35 35 33 32 32 31 30 29 29 29 29 29 29 29 28 28 27
4 4 6 6 7 11 12 11 10 9 9 9 9 10 8 7 10 12 14 15 14 13 14 15 17 18 16 15 19 20 17 14 11 9 10 11 11 10 9 8 8 8 8 9 10 10 9 10 11 12 15 19 21 24 26 28 30 30 30 30 29 31 32 29 27 27 28 30 33 34 31 30 31 31 30 29 29 29 29 29 29 29 28 28 27 26
2 4 6 7 4 10 13 13 12 10 10 11 11 11 11 12 12 12 12 11 10 12 15 16 17 18 16 13 14 17 19 17 13 13 14 14 12 10 9 9 10 10 11 12 12 11 10 11 12 11 12 17 22 25 27 29 30 30 31 31 32 33 32 29 27 27 28 30 32 31 29 29 30 30 30 29 29 28 27 27 28 28 28 27 26 26
3 2 3 6 4 7 10 11 12 11 8 9 11 13 16 17 16 15 12 9 10 13 14 14 12 13 14 11 10 14 19 18 16 15 16 16 14 10 9 10 12 13 13 13 12 11 12 12 11 11 12 17 22 24 26 30 30 29 30 33 36 35 32 29 28 28 28 29 29 28 28 29 29 29 29 28 28 27 26 26 27 27 27 26 26 25
4 3 3 5 4 7 8 8 7 6 4 6 11 16 20 19 17 14 12 13 17 15 11 11 11 11 12 12 12 16 19 17 16 15 15 16 15 11 9 10 13 15 14 14 13 12 12 12 11 13 16 20 24 25 28 30 30 32 35 37 37 33 30 29 29 28 28 28 28 28 29 29 30 30 29 27 27 25 25 26 27 28 27 27 26 25
4 4 3 4 4 6 7 4 3 4 7 8 9 12 15 16 16 16 16 19 20 15 11 11 11 11 13 14 17 20 18 15 15 16 16 15 13 12 11 12 15 15 14 13 13 14 13 13 14 18 21 23 26 28 29 28 29 32 34 34 32 30 29 29 29 28 27 28 29 29 29 29 30 30 28 26 25 25 25 26 27 28 27 27 26 25
5 5 4 3 2 4 4 3 3 7 8 8 8 8 11 15 17 18 19 21 19 15 14 14 15 16 17 18 19 19 17 15 15 16 18 18 13 10 13 15 15 14 14 14 15 16 15 15 17 19 22 24 26 27 28 27 27 27 26 26 27 27 28 28 28 28 28 29 29 29 28 28 29 29 27 25 24 24 25 27 27 27 27 27 26 25
5 5 3 3 3 2 2 4 7 5 3 5 8 7 9 12 13 13 16 17 16 14 13 14 16 18 19 19 18 16 14 13 12 14 19 18 10 7 12 17 15 12 13 14 14 16 17 18 19 20 22 23 23 22 22 22 21 20 20 21 23 25 26 26 26 27 28 29 28 26 26 27 27 26 25 24 23 24 25 25 26 26 26 25 24 24
7 4 2 3 4 3 4 7 6 6 8 10 11 8 6 5 7 8 9 11 11 11 12 13 16 18 17 17 16 13 11 9 9 14 16 10 5 7 13 15 14 12 13 16 18 21 23 24 23 22 21 21 19 15 14 14 14 15 16 18 20 22 23 23 24 26 27 26 24 24 24 24 25 24 23 23 23 23 24 24 24 24 25 24 23 22
9 7 5 4 4 4 6 7 6 7 9 10 12 11 7 6 7 7 5 8 7 5 5 6 8 10 10 10 11 11 8 6 9 14 10 4 1 8 12 12 12 12 13 16 18 20 22 22 21 19 18 16 14 12 11 11 12 14 15 16 18 19 20 22 24 24 23 22 21 22 22 22 23 23 22 22 23 23 23 23 23 23 23 23 23 22
12 9 7 6 5 5 7 7 7 8 8 7 9 9 6 5 6 5 4 6 3 3 5 6 6 7 7 7 8 8 6 5 7 9 9 10 9 11 13 13 13 14 15 15 15 17 18 19 18 17 16 14 14 12 11 11 12 14 15 16 17 18 20 21 21 20 18 18 18 19 20 20 21 21 21 21 22 22 22 22 22 22 21 21 21 21
9 8 7 6 6 8 9 8 6 5 6 7 8 6 2 1 1 2 5 4 3 5 4 5 4 6 5 6 7 6 4 6 6 9 13 14 11 10 13 14 14 14 16 18 18 18 18 18 17 17 17 17 15 13 11 11 12 14 15 15 16 18 18 18 16 15 15 16 16 17 18 18 18 19 20 20 20 20 20 20 20 20 20 19 19 18
4 5 7 7 8 11 11 9 7 5 6 8 8 6 2 1 1 4 6 2 4 8 3 3 2 5 4 5 6 3 4 7 8 11 15 16 14 12 13 16 16 17 18 20 20 20 19 18 16 15 16 16 14 12 11 11 12 13 13 14 15 15 15 13 13 14 15 16 16 16 17 16 16 17 18 18 18 18 18 18 19 19 19 18 17 17
4 3 5 7 9 9 9 8 8 6 3 3 5 4 2 2 4 4 3 3 4 9 7 3 2 5 4 4 5 5 7 9 10 13 15 16 15 13 12 14 16 18 20 22 21 19 18 18 16 15 15 14 12 11 11 11 12 12 13 13 14 13 13 13 15 16 17 17 17 17 16 16 16 17 17 18 18 18 18 18 17 18 18 18 17 17
4 3 3 5 6 5 7 8 7 4 1 3 4 3 3 1 3 3 2 3 4 7 9 7 3 3 3 4 7 8 10 11 12 12 14 16 16 15 14 14 13 14 17 20 21 19 16 15 15 14 13 12 11 11 10 11 12 13 13 13 13 14 14 16 17 18 18 18 18 17 16 16 17 17 18 18 19 19 19 18 17 18 18 18 18 18
4 5 4 4 3 3 5 6 4 3 2 2 2 0 1 3 3 5 2 4 5 4 6 6 5 2 1 3 7 8 10 12 12 12 13 15 16 16 15 15 15 15 17 19 20 19 15 14 14 12 10 10 10 9 9 12 13 12 12 12 13 15 16 17 18 19 19 19 18 18 17 17 17 17 18 18 19 19 19 19 18 18 18 19 19 19
6 6 3 3 3 3 4 5 4 4 3 1 2 4 4 6 4 5 6 3 4 4 4 5 7 6 4 4 6 7 9 11 12 12 12 13 15 15 15 16 17 17 18 18 18 16 14 13 12 10 9 8 8 8 9 11 13 13 12 13 14 16 17 18 19 20 20 20 20 20 19 19 18 18 18 18 18 18 19 20 19 19 18 18 19 19
5 3 3 1 3 4 3 3 2 1 1 2 2 4 6 6 5 4 6 5 5 5 5 5 7 9 8 5 5 6 9 11 12 12 12 12 13 14 13 15 17 18 17 17 15 14 13 13 11 9 8 6 6 7 8 10 12 13 13 14 15 16 18 20 21 21 22 22 21 21 21 21 20 18 18 18 17 18 19 20 20 19 19 18 18 17
2 2 3 1 3 4 3 0 2 1 2 4 6 5 4 6 6 5 6 5 6 6 6 6 7 9 10 8 6 7 9 10 10 12 12 11 11 13 12 12 14 16 16 14 13 13 12 11 10 9 7 6 6 6 7 9 10 12 13 15 16 17 19 21 22 23 23 23 23 22 21 22 22 20 19 18 17 18 18 18 18 18 18 18 18 17
2 2 2 1 3 4 4 3 3 4 5 5 6 5 4 5 6 5 5 6 6 6 7 7 7 7 8 10 9 8 9 9 9 10 11 10 10 11 11 11 13 16 16 15 14 13 12 12 12 10 8 7 6 6 8 9 10 12 14 16 18 20 21 21 22 23 24 23 23 22 21 22 22 21 20 19 18 19 18 17 17 18 17 17 18 18
2 1 1 3 3 4 5 7 7 7 6 6 6 5 5 6 6 6 6 6 5 6 7 7 7 7 7 10 11 9 9 10 9 9 10 11 10 10 10 13 16 18 17 16 14 13 13 13 12 11 9 8 7 7 9 10 11 12 15 18 21 22 22 22 23 24 24 23 23 22 22 22 21 21 21 21 19 18 16 16 16 16 15 14 14 15
2 3 4 3 4 5 6 4 3 3 4 5 6 7 8 8 7 7 7 6 6 7 7 9 10 9 9 10 10 8 8 10 10 9 10 10 10 11 13 15 17 18 17 15 13 13 13 13 12 11 10 9 8 9 10 10 11 13 16 19 21 22 23 23 23 22 22 22 22 23 23 22 22 22 23 23 22 21 19 16 14 14 14 13 10 10
4 5 5 4 4 5 6 5 4 4 5 7 7 8 8 7 6 7 7 7 8 9 8 8 9 11 12 12 11 8 8 10 11 10 9 10 13 15 17 18 17 17 16 14 11 12 12 12 12 12 11 10 10 11 11 11 12 14 15 18 20 21 23 24 23 21 20 21 22 22 22 23 23 24 24 24 24 24 23 21 17 14 12 12 11 9
Wind_Direction
83 133 167 215 221 211 221 225 230 360 24 18 9 360 317 7 22 85 93 334 336 327 245 241 253 261 260 262 263 263 260 248 240 240 239 234 230 230 231 233 229 224 226 217 208 203 200 202 203 201 202 201 201 204 205 205 208 208 206 207 209 210 208 207 205 206 207 206 208 210 212 214 213 214 217 219 221 224 224 223 223 224 224 224 221 220
73 170 206 214 222 208 240 221 111 44 20 11 2 357 347 331 93 76 84 240 357 14 268 273 277 270 268 272 272 266 262 256 244 244 244 239 237 232 230 234 233 230 228 214 206 198 192 193 195 194 196 197 197 202 205 206 208 209 206 206 210 209 206 207 206 206 208 209 210 210 212 215 215 217 218 218 219 224 226 222 220 221 222 222 222 221
121 217 223 207 152 71 50 41 46 23 5 21 18 358 325 286 139 72 64 316 81 189 273 312 306 280 273 269 268 261 251 246 235 233 237 237 239 238 235 235 228 225 221 207 197 184 181 183 185 188 193 197 200 203 204 206 207 207 206 207 210 209 207 207 208 208 210 212 213 214 216 216 216 218 219 220 220 223 226 223 220 220 221 219 218 217
160 219 230 104 84 87 58 43 37 16 1 4 195 224 271 250 85 34 348 306 228 220 296 327 308 281 272 257 255 251 244 244 237 234 234 227 229 234 238 236 216 213 215 203 194 180 173 175 179 187 194 198 202 203 204 205 206 207 207 207 208 209 209 208 208 210 211 212 213 215 217 217 217 220 222 223 225 225 224 223 220 220 220 219 219 220
153 151 267 75 85 165 114 90 109 140 248 227 211 212 229 228 120 121 57 305 244 247 357 328 308 282 262 240 259 262 243 238 233 233 237 228 229 241 248 249 230 218 214 200 195 184 171 175 185 193 198 199 201 204 206 207 207 208 209 208 209 210 210 209 208 209 210 209 208 207 207 210 214 219 220 219 219 220 222 223 222 218 217 217 219 222
164 341 300 126 129 180 161 165 183 187 228 237 215 211 237 277 5 101 70 11 326 333 313 349 341 291 291 294 288 300 278 241 225 220 229 231 236 245 249 248 244 238 227 208 197 181 171 183 192 195 197 199 203 208 210 210 209 209 210 210 209 210 210 210 209 209 209 208 206 203 200 200 203 206 210 213 213 214 217 221 222 222 220 218 217 220
143 315 345 113 127 130 155 224 192 176 208 264 264 335 333 325 33 85 60 37 358 281 247 128 82 280 303 297 267 273 274 260 246 230 226 227 231 233 233 228 230 234 228 219 212 190 173 181 186 190 196 201 207 211 211 211 211 210 211 211 210 210 210 209 208 209 210 209 208 208 208 208 207 208 212 216 216 216 218 221 222 223 222 220 218 218
115 135 42 75 112 119 147 232 195 169 173 251 282 334 347 74 101 129 150 196 212 322 295 167 144 231 293 284 241 196 280 277 266 252 240 232 233 231 223 209 205 209 198 190 203 199 174 171 176 184 196 204 209 211 209 210 210 209 210 210 209 210 210 209 208 209 210 210 210 211 213 215 216 217 219 222 225 224 224 225 225 225 223 220 219 218
44 146 158 136 140 144 151 199 295 177 158 235 255 314 7 85 107 134 144 224 161 28 312 222 159 186 265 276 280 221 255 268 264 257 249 241 238 228 204 176 158 149 140 145 165 178 168 164 171 181 194 204 208 209 209 210 210 209 208 209 208 208 209 209 209 211 212 212 212 213 214 216 219 221 222 227 234 233 228 227 226 227 225 221 219 219
13 168 190 145 157 164 121 54 336 28 131 202 205 105 61 82 73 70 121 36 63 14 252 203 175 221 256 264 278 272 234 251 257 255 252 246 227 173 147 130 121 112 112 124 132 137 146 157 163 170 181 193 201 206 208 208 209 207 206 206 206 207 208 210 211 213 214 212 214 216 216 217 219 222 224 226 234 233 226 224 224 225 225 223 220 219
89 136 242 106 126 137 117 84 13 39 97 151 163 116 97 121 66 32 89 84 47 271 246 197 186 207 267 251 244 247 216 216 242 264 245 74 67 85 106 121 136 139 139 142 134 123 128 147 158 160 167 178 189 196 200 203 204 204 203 203 204 206 208 210 212 214 215 214 215 217 218 220 221 222 223 223 226 226 221 219 222 224 226 226 223 220
147 97 167 42 12 134 118 76 27 24 50 96 152 130 119 40 48 17 357 75 231 252 268 255 194 196 248 244 228 254 252 177 188 237 135 120 124 125 129 155 158 155 160 156 151 143 137 148 162 167 169 175 183 189 193 197 199 200 200 201 203 205 207 210 212 214 216 216 217 218 220 222 222 221 221 220 221 221 219 218 220 223 225 226 225 222
190 203 146 73 330 220 134 88 39 4 353 15 160 119 112 307 18 321 243 163 230 241 266 328 356 242 247 241 244 277 283 262 221 209 153 132 161 175 174 186 173 156 165 162 158 162 168 175 180 181 179 181 186 190 192 195 196 198 200 201 204 206 207 210 212 214 216 218 219 220 221 223 224 223 223 222 222 222 223 221 219 220 222 222 223 222
224 284 116 100 336 253 181 145 122 285 240 191 171 139 147 176 205 236 226 212 234 248 291 326 348 270 275 266 234 244 258 260 249 198 126 122 176 190 176 178 175 180 190 180 169 172 181 188 189 191 189 189 192 193 194 196 197 199 200 202 205 207 207 209 212 214 216 219 222 222 223 224 225 225 225 224 224 224 226 225 222 222 223 222 223 223
199 282 184 170 177 183 198 195 168 160 177 199 188 162 177 175 189 213 190 212 229 247 311 318 284 214 222 286 243 241 281 290 305 306 223 259 235 158 133 173 180 197 207 198 192 193 193 190 192 197 198 197 197 196 197 199 199 200 202 203 204 206 206 208 211 214 217 219 222 223 224 225 226 226 226 226 226 226 226 227 226 225 226 226 227 227
197 247 182 164 161 168 186 210 180 136 150 222 205 183 216 205 182 188 164 185 163 29 292 254 249 222 209 280 280 290 300 293 297 307 312 302 298 110 188 232 210 209 209 202 210 221 217 207 203 203 202 201 199 198 199 200 201 202 203 204 205 207 207 208 211 215 218 220 221 224 225 226 226 226 226 227 228 228 228 228 228 229 230 231 231 231
176 246 89 83 146 166 182 224 186 132 162 208 181 202 217 133 115 172 263 41 100 268 261 187 254 275 305 291 268 250 261 259 261 290 301 288 286 274 261 259 242 225 215 207 213 227 230 218 211 207 202 200 198 200 202 203 204 204 204 204 206 208 209 210 212 215 218 219 221 224 225 226 226 226 227 227 228 229 229 230 231 232 233 234 234 234
158 207 310 47 145 188 293 308 46 42 82 139 174 212 144 39 32 137 224 347 125 247 264 185 250 280 299 277 279 264 267 262 247 253 261 267 274 272 273 281 261 215 206 215 220 230 235 220 210 206 203 204 204 204 205 205 206 207 207 206 206 207 209 211 212 214 217 220 221 222 224 225 226 228 229 228 228 229 230 230 231 231 232 234 235 235
154 188 294 349 353 311 353 23 176 8 44 114 180 233 99 113 259 142 176 239 213 237 272 254 256 269 247 247 302 313 265 248 234 223 221 241 260 269 279 295 288 221 209 226 228 231 232 218 210 204 202 206 208 207 207 206 206 206 207 207 209 211 212 212 213 215 218 221 222 223 223 225 226 227 228 228 228 229 229 229 229 229 230 231 232 234
138 180 240 327 326 321 36 190 195 200 20 31 356 350 85 147 181 172 190 200 189 210 253 273 275 261 242 229 232 249 238 218 210 194 174 171 234 283 291 310 311 293 263 254 241 225 214 214 214 207 206 207 205 205 205 204 204 205 205 206 209 213 214 214 215 216 218 220 222 223 224 225 226 225 225 226 227 227 228 229 230 230 230 229 231 232
119 187 207 315 333 359 163 217 194 177 169 155 288 222 186 135 111 193 257 191 172 192 221 259 272 260 245 186 201 230 223 171 155 121 97 60 28 351 323 302 295 296 291 289 270 240 219 211 211 208 210 209 204 202 202 202 204 205 205 206 209 212 213 215 216 217 219 220 221 223 224 225 225 223 224 226 227 228 228 229 230 231 230 231 232 231
156 184 173 141 295 216 215 222 199 185 186 186 196 198 196 191 154 199 253 220 178 201 215 219 264 270 250 127 125 111 85 85 98 82 21 356 336 304 292 275 262 267 281 287 290 275 240 202 195 196 202 202 201 201 201 203 205 206 207 208 211 213 215 217 217 218 219 220 222 224 225 225 223 222 224 225 228 229 228 227 228 229 230 229 230 230
123 143 166 171 196 210 221 215 162 152 183 204 223 210 198 192 176 186 217 217 193 223 242 219 263 273 259 130 85 1 42 26 119 24 318 311 277 250 241 247 257 270 283 286 293 319 352 192 196 199 202 202 202 205 205 206 207 209 211 211 212 216 217 219 219 219 221 222 224 226 226 227 224 222 223 225 227 228 228 227 227 229 230 229 229 230
91 132 184 200 181 27 14 24 33 38 51 308 263 226 195 202 196 192 193 184 184 199 218 216 244 268 268 180 172 290 290 283 282 282 281 274 252 230 228 248 265 281 291 288 279 227 105 186 207 209 215 217 215 214 213 214 215 216 216 214 215 218 219 218 218 220 222 224 227 228 228 228 226 223 223 225 226 227 227 228 228 229 230 229 230 231
193 180 176 169 175 325 348 348 347 358 28 244 254 225 217 218 181 145 145 149 241 210 198 206 230 261 273 255 208 267 256 240 265 248 229 240 247 244 250 254 240 236 258 273 279 266 205 219 223 226 234 237 236 231 228 228 228 226 223 220 220 220 220 218 218 220 223 225 228 230 231 230 227 224 224 225 227 228 228 229 228 228 228 228 229 229
146 200 175 171 197 208 212 215 218 230 207 232 240 220 222 216 177 154 148 168 224 225 213 225 239 260 278 278 273 274 266 255 270 278 265 262 257 252 255 251 227 218 233 250 263 261 249 253 262 257 248 243 242 240 238 239 238 237 236 232 227 224 221 219 219 221 223 226 228 231 232 232 229 225 225 226 228 228 229 230 229 228 227 228 228 228
98 253 218 207 228 220 210 226 177 134 140 201 227 220 222 224 198 180 188 200 219 236 235 237 240 255 270 276 279 278 274 274 287 289 285 282 272 264 254 248 245 231 221 223 233 244 253 265 271 261 252 246 245 244 244 244 244 244 243 240 236 230 225 222 221 221 224 226 228 231 233 233 231 228 226 226 228 228 228 228 227 227 228 230 230 230
105 251 243 237 264 266 268 288 317 40 153 216 230 226 223 231 215 194 216 227 224 235 247 240 235 246 260 271 278 277 278 289 293 268 272 280 281 280 268 259 256 235 216 218 229 237 240 249 259 258 249 243 241 242 245 247 248 247 244 243 241 236 230 226 222 221 224 226 228 232 234 234 233 231 228 227 227 227 226 226 226 228 229 230 231 230
116 228 227 215 258 272 277 284 296 308 292 269 263 256 239 228 221 216 228 235 227 229 249 255 251 253 259 268 274 278 285 297 296 284 287 296 299 301 290 273 257 240 236 240 243 241 236 241 246 246 245 243 239 237 239 242 244 243 241 241 241 239 234 228 222 222 223 225 230 234 235 236 236 233 231 228 227 226 226 226 227 228 228 229 230 229
132 208 205 192 241 262 263 267 273 277 279 278 273 272 273 255 234 226 230 236 237 240 251 261 264 263 259 261 272 284 292 293 295 300 298 293 292 292 287 278 269 262 261 261 260 256 248 243 239 236 240 242 240 239 239 240 239 237 236 237 238 239 236 229 223 223 224 227 232 234 235 237 237 234 231 228 227 226 225 225 226 226 226 227 228 228
173 193 177 160 213 255 253 253 256 254 256 263 267 270 272 269 260 248 241 239 241 246 249 253 261 266 263 261 272 285 289 290 295 297 292 287 283 281 282 282 277 270 265 263 264 264 257 248 242 239 238 241 243 242 242 244 243 239 236 236 237 238 237 231 226 226 227 230 233 233 233 235 235 233 230 228 227 226 224 224 224 224 224 223 225 226
177 184 135 139 198 247 241 240 247 246 243 252 259 256 249 249 252 250 246 239 234 239 244 247 252 260 267 273 277 277 280 285 290 290 287 286 285 281 279 277 274 270 268 269 269 267 263 259 256 255 252 252 253 249 246 247 245 240 238 238 239 237 234 230 229 229 230 232 232 231 231 232 232 231 230 228 226 224 222 222 222 221 220 219 221 222
169 167 137 153 198 249 242 225 226 234 227 224 234 237 235 236 242 247 249 243 237 235 237 242 244 253 270 283 278 270 272 278 283 283 281 283 286 283 269 265 270 272 273 275 277 273 270 269 265 262 260 261 260 256 253 248 241 239 242 242 239 233 228 227 230 230 230 232 231 230 230 230 229 229 228 226 224 222 219 218 218 217 216 216 218 220
183 178 178 171 186 250 245 192 159 224 237 234 228 225 225 228 233 237 240 240 239 236 237 247 257 262 266 267 265 266 269 272 274 277 277 277 281 285 281 273 272 276 281 284 284 281 279 277 276 272 269 268 267 266 264 257 247 244 244 240 234 228 225 226 228 228 230 231 230 228 228 227 227 227 226 223 221 219 216 216 215 215 214 214 214 216
185 191 202 190 194 259 251 167 201 232 232 242 245 224 220 226 226 229 238 241 242 242 241 246 253 255 254 255 258 263 267 270 274 278 277 273 273 282 285 280 277 282 288 288 285 284 282 279 281 281 280 280 280 277 272 264 254 245 236 228 224 222 222 223 224 227 229 228 226 224 224 224 224 223 222 219 217 215 214 214 213 212 212 211 212 215
186 196 199 202 209 252 252 215 230 251 284 285 274 247 228 230 228 232 245 249 246 242 239 240 244 247 251 256 260 265 271 278 281 271 267 271 280 284 278 278 281 283 281 280 280 280 281 282 283 285 288 292 294 285 271 258 246 232 222 218 218 218 219 221 222 224 224 222 221 220 220 220 220 218 216 214 212 212 212 211 210 210 210 209 210 213
197 202 193 214 209 208 240 242 251 292 301 283 269 249 215 207 210 217 240 253 246 235 231 235 241 247 252 257 265 273 278 286 286 273 269 274 268 253 262 271 277 275 270 271 272 275 281 286 288 289 291 295 296 285 263 246 232 221 215 213 214 216 217 217 219 220 219 218 218 217 216 216 215 213 211 209 208 208 208 209 210 209 208 206 205 207
198 201 193 211 210 199 234 250 254 262 260 256 258 255 239 221 211 196 220 251 248 239 245 250 259 269 276 285 294 298 295 283 273 274 289 1 5 273 281 284 282 279 276 279 287 295 301 303 300 296 293 293 291 281 260 242 231 223 216 212 212 211 210 211 214 216 216 216 216 214 212 211 210 208 206 205 206 206 206 208 208 208 207 206 204 204
201 203 199 212 226 216 224 238 240 244 248 248 256 263 264 237 208 183 217 251 268 13 19 21 3 338 334 334 333 338 331 291 268 280 317 357 354 321 315 313 308 308 309 316 328 333 329 324 317 307 299 295 290 279 262 244 230 220 213 210 207 205 205 209 212 214 213 213 212 209 207 207 207 206 204 204 204 204 204 205 204 204 203 203 204 202
203 207 207 214 227 227 231 242 242 245 259 259 256 266 307 29 114 202 238 256 333 351 22 53 5 324 327 333 341 358 334 284 279 298 313 322 327 320 315 314 315 320 324 329 332 329 326 323 315 306 299 293 286 275 259 241 224 214 210 206 202 204 208 210 210 208 206 205 202 200 201 202 203 204 203 202 200 199 200 199 198 196 195 195 197 196
195 209 215 217 226 229 232 242 248 249 254 257 267 284 286 159 188 253 242 234 324 315 329 80 307 278 288 326 331 316 275 276 285 295 303 310 314 312 308 305 305 308 312 315 315 315 315 312 305 296 290 285 279 268 253 236 221 213 207 201 200 205 207 205 199 194 191 190 189 189 193 195 197 198 197 195 193 190 190 193 193 190 189 187 187 186
179 196 212 215 225 231 231 236 248 257 255 257 283 312 13 163 208 242 235 198 269 301 317 346 266 237 239 293 296 276 276 286 293 298 304 307 308 307 303 300 300 303 305 306 307 308 308 303 297 288 281 278 273 262 250 235 220 209 198 193 194 197 194 188 185 182 180 179 179 180 182 184 186 186 185 183 183 180 178 183 186 185 184 182 179 178
187 198 215 208 211 223 230 234 240 245 329 9 331 326 29 49 212 209 246 246 258 297 310 316 299 190 198 281 286 287 297 300 300 304 305 304 305 306 304 301 299 298 300 302 302 302 301 297 290 281 275 274 269 259 244 227 211 199 190 188 185 182 181 178 176 175 173 171 170 170 171 172 173 174 173 173 175 175 172 174 177 178 178 177 173 170
207 209 219 216 200 198 222 232 219 198 201 21 17 259 301 296 214 162 179 287 302 305 297 303 303 248 204 287 285 288 298 300 300 302 302 303 306 306 307 309 307 303 300 298 296 296 293 286 279 270 263 263 262 256 238 218 205 192 184 180 175 173 173 172 170 168 163 161 159 157 158 160 161 163 165 166 169 169 166 166 168 170 172 173 170 164
213 203 198 225 227 207 216 224 202 191 208 186 164 194 231 273 258 167 164 231 276 272 262 283 295 294 295 290 283 288 292 291 294 298 298 300 302 303 305 307 307 308 307 302 299 298 293 285 275 259 249 253 256 248 232 216 204 191 179 173 173 174 171 167 164 159 152 150 148 147 148 149 151 155 159 162 166 164 160 161 162 162 164 166 164 159
221 174 134 191 268 271 258 229 177 142 350 338 278 218 210 239 253 185 163 200 242 255 258 265 282 294 299 288 269 274 281 284 291 294 294 296 298 300 303 303 306 312 312 307 304 301 293 286 275 254 238 244 249 237 223 213 205 193 180 174 176 176 171 165 157 149 144 142 141 142 144 143 143 147 152 157 162 161 158 159 158 156 157 158 156 153
277 62 102 158 267 268 267 65 104 168 291 316 306 286 250 244 238 191 176 206 233 250 259 258 267 287 298 293 270 254 263 273 281 286 292 295 295 298 302 303 306 311 310 304 300 296 288 277 265 249 231 224 231 225 209 202 199 191 181 176 175 172 167 160 151 142 139 138 137 139 141 138 137 140 143 147 151 150 150 154 154 150 151 153 152 151
260 25 52 209 216 229 257 296 296 278 283 282 272 270 268 263 253 225 212 224 237 250 260 259 258 271 286 290 284 271 266 268 269 276 286 289 288 292 297 297 300 304 304 299 293 288 278 264 253 244 230 219 219 213 200 191 189 187 181 174 171 167 161 154 146 139 136 134 134 135 136 134 134 134 135 137 140 141 143 149 150 149 152 160 162 160
252 317 267 254 260 269 283 298 305 308 311 296 280 286 291 282 279 276 265 257 259 265 273 279 279 275 276 283 287 284 277 274 270 269 278 283 284 285 288 291 295 297 298 296 293 286 276 264 252 236 224 221 216 204 196 187 184 185 179 171 168 165 157 149 143 139 135 134 134 134 134 133 132 131 130 130 130 132 136 144 149 148 149 160 172 174
255 249 241 249 271 274 269 273 290 300 292 288 294 298 292 287 293 297 296 299 296 286 289 297 298 295 290 287 286 281 274 276 276 270 271 276 276 277 283 288 291 293 292 292 291 285 276 265 252 232 217 215 207 195 188 181 176 176 173 168 166 163 156 147 140 135 134 135 135 136 135 135 134 134 133 131 128 124 122 128 138 141 137 140 155 170
219 223 225 220 235 260 270 274 282 280 269 272 281 283 284 294 306 304 300 299 291 285 287 294 298 302 303 299 294 283 272 275 279 275 272 274 274 275 279 283 286 288 289 284 277 272 269 261 248 230 214 202 190 181 175 168 164 166 168 167 166 163 157 149 141 136 138 139 139 140 140 138 137 137 136 134 132 128 121 116 116 120 126 131 134 143